OPAL

导读

OPAL卫星是美国斯坦福大学学生团队研发的第一代微型卫星,于2000年1月27日在美国范登堡空军基地发射入轨,一同升空的还有另外4颗卫星。该卫星核心载荷是皮卫星发射器,可携带释放多颗轻量化皮卫星,为业余无线电群体提供实验通信平台,推动了微小卫星组网技术和空间通信实验的发展,是美国微小卫星早期探索的代表性项目。

基本信息
目录编号:
26063
目录名称:
OPAL
国际标识:
2000-004C
轨道中心:
EARTH
卫星名称:
OPAL
卫星全名:
--
卫星状态:
在轨 (已飞行9724 天)
发射日期:
2000-01-27 UTC
国别 :
美国 (US)
星等 :
--
该卫星已列入 空间交会检测服务 Space Conjunction Data Service (SCDS) ,当前飞行风险评估等级: 无高风险
轨道信息
数据来源 国际轨道数据
星历时间: 2026-09-11T02:15:35+0800
12小时前
查看轨道信息
半长轴: 7143.286km
偏心率: 0.0036037
轨道倾角: 100.197°
近地点辐角 152.090°
升交点赤经 206.387°
平近点角 208.223°
近地点: 739.406km
远地点: 790.892km
周期: 100.140分钟
每日圈数: 14.379897
详细信息
使用方式:
暂无
2D轨道图
3D轨道图
轨道高度分析图
轨道倾角分析图
轨道综合分析图
查看轨道综合分析图
与全量物体交会距离演化趋势
与全量物体交会风险概率演化趋势